TimeCST,TemperatureF,Dew PointF,Humidity,Sea Level PressureIn,VisibilityMPH,Wind Direction,Wind SpeedMPH,Gust SpeedMPH,PrecipitationIn,Events,Conditions,WindDirDegrees,DateUTC
12:15 AM,30.7,29.7,96,30.45,5.0,Calm,Calm,-,N/A,,Clear,0,2012-11-17 06:15:00
12:35 AM,30.9,30.0,96,30.45,5.0,Calm,Calm,-,N/A,,Clear,0,2012-11-17 06:35:00
12:55 AM,31.5,30.7,97,30.45,4.0,Calm,Calm,-,N/A,,Clear,0,2012-11-17 06:55:00
1:15 AM,30.9,30.2,97,30.45,4.0,Calm,Calm,-,N/A,,Clear,0,2012-11-17 07:15:00
1:35 AM,31.8,30.0,93,30.46,5.0,Calm,Calm,-,N/A,,Clear,0,2012-11-17 07:35:00
1:55 AM,32.7,31.1,94,30.46,7.0,Calm,Calm,-,N/A,,Clear,0,2012-11-17 07:55:00
2:15 AM,33.8,31.6,92,30.46,7.0,Calm,Calm,-,N/A,,Clear,0,2012-11-17 08:15:00
2:35 AM,32.0,30.9,96,30.46,7.0,Calm,Calm,-,N/A,,Clear,0,2012-11-17 08:35:00
2:55 AM,30.7,29.7,96,30.47,4.0,Calm,Calm,-,N/A,,Clear,0,2012-11-17 08:55:00
3:15 AM,31.1,30.2,96,30.47,5.0,Calm,Calm,-,N/A,,Clear,0,2012-11-17 09:15:00
3:35 AM,30.9,29.8,96,30.47,4.0,Calm,Calm,-,N/A,,Clear,0,2012-11-17 09:35:00
3:55 AM,30.2,29.3,96,30.47,4.0,Calm,Calm,-,N/A,,Clear,0,2012-11-17 09:55:00
4:15 AM,29.5,28.6,96,30.48,4.0,Calm,Calm,-,N/A,,Clear,0,2012-11-17 10:15:00
4:35 AM,29.3,28.2,96,30.48,4.0,Calm,Calm,-,N/A,,Clear,0,2012-11-17 10:35:00
4:55 AM,28.9,28.0,96,30.48,4.0,Calm,Calm,-,N/A,,Clear,0,2012-11-17 10:55:00
5:15 AM,29.3,28.8,98,30.48,4.0,Calm,Calm,-,N/A,,Clear,0,2012-11-17 11:15:00
5:35 AM,28.6,28.0,98,30.48,4.0,Calm,Calm,-,N/A,,Clear,0,2012-11-17 11:35:00
5:55 AM,28.6,27.9,97,30.48,5.0,East,3.5,-,N/A,,Clear,80,2012-11-17 11:55:00
6:15 AM,28.4,27.7,97,30.49,4.0,Calm,Calm,-,N/A,,Clear,0,2012-11-17 12:15:00
6:35 AM,28.6,27.9,97,30.49,4.0,Calm,Calm,-,N/A,,Clear,0,2012-11-17 12:35:00
6:55 AM,28.4,27.1,95,30.49,3.0,ENE,3.5,-,N/A,,Clear,60,2012-11-17 12:55:00
7:15 AM,27.3,26.6,97,30.49,2.5,Calm,Calm,-,N/A,,Clear,0,2012-11-17 13:15:00
7:35 AM,28.8,27.9,96,30.49,4.0,ESE,3.5,-,N/A,,Clear,120,2012-11-17 13:35:00
7:55 AM,30.4,29.1,95,30.49,4.0,ESE,3.5,-,N/A,,Clear,110,2012-11-17 13:55:00
8:15 AM,32.7,31.3,94,30.50,4.0,Calm,Calm,-,N/A,,Clear,0,2012-11-17 14:15:00
8:35 AM,36.0,32.2,86,30.50,5.0,Calm,Calm,-,N/A,,Clear,0,2012-11-17 14:35:00
8:55 AM,38.3,33.4,83,30.50,5.0,Calm,Calm,-,N/A,,Haze,0,2012-11-17 14:55:00
9:15 AM,41.2,33.6,74,30.50,5.0,SSE,5.8,-,N/A,,Haze,160,2012-11-17 15:15:00
9:35 AM,42.8,33.4,70,30.50,7.0,South,5.8,-,N/A,,Clear,180,2012-11-17 15:35:00
9:55 AM,44.6,33.4,65,30.50,7.0,SW,3.5,-,N/A,,Clear,230,2012-11-17 15:55:00
10:15 AM,45.1,34.0,65,30.50,7.0,South,4.6,-,N/A,,Clear,190,2012-11-17 16:15:00
10:35 AM,47.1,34.5,62,30.50,7.0,SSW,3.5,-,N/A,,Clear,210,2012-11-17 16:35:00
11:55 AM,52.0,34.2,51,30.46,10.0,South,8.1,-,N/A,,Clear,180,2012-11-17 17:55:00
12:15 PM,53.1,34.2,49,30.46,7.0,SSW,5.8,-,N/A,,Clear,210,2012-11-17 18:15:00
12:35 PM,52.2,33.8,50,30.45,10.0,WSW,4.6,-,N/A,,Clear,240,2012-11-17 18:35:00
12:55 PM,52.5,33.6,49,30.45,10.0,South,5.8,-,N/A,,Clear,180,2012-11-17 18:55:00
1:15 PM,54.0,34.2,47,30.44,7.0,SE,8.1,-,N/A,,Clear,140,2012-11-17 19:15:00
1:35 PM,55.2,34.7,46,30.44,10.0,SE,9.2,-,N/A,,Clear,140,2012-11-17 19:35:00
1:55 PM,56.1,34.5,44,30.43,10.0,SSE,9.2,-,N/A,,Clear,160,2012-11-17 19:55:00
2:15 PM,54.7,32.7,43,30.43,10.0,SSE,10.4,-,N/A,,Clear,150,2012-11-17 20:15:00
2:35 PM,54.1,33.1,45,30.42,10.0,SSE,6.9,-,N/A,,Clear,160,2012-11-17 20:35:00
3:15 PM,54.0,32.9,45,30.42,10.0,SE,8.1,-,N/A,,Clear,140,2012-11-17 21:15:00
3:35 PM,54.5,33.6,45,30.42,10.0,ESE,5.8,-,N/A,,Clear,110,2012-11-17 21:35:00
3:55 PM,53.2,32.9,46,30.42,10.0,ESE,5.8,-,N/A,,Clear,120,2012-11-17 21:55:00
4:15 PM,49.8,34.2,55,30.41,10.0,SE,6.9,-,N/A,,Clear,130,2012-11-17 22:15:00
4:35 PM,47.5,32.7,57,30.41,10.0,SE,8.1,-,N/A,,Clear,130,2012-11-17 22:35:00
4:55 PM,45.1,32.0,60,30.41,10.0,ESE,8.1,-,N/A,,Clear,120,2012-11-17 22:55:00
5:15 PM,44.6,32.0,61,30.41,10.0,ESE,8.1,-,N/A,,Clear,120,2012-11-17 23:15:00
5:35 PM,43.2,31.6,64,30.41,10.0,ESE,8.1,-,N/A,,Clear,120,2012-11-17 23:35:00
6:15 PM,42.8,32.0,66,30.41,10.0,ESE,6.9,-,N/A,,Clear,120,2012-11-18 00:15:00
6:35 PM,42.3,32.4,68,30.41,10.0,SE,6.9,-,N/A,,Clear,130,2012-11-18 00:35:00
6:55 PM,39.7,32.0,74,30.41,10.0,SE,6.9,-,N/A,,Clear,140,2012-11-18 00:55:00
7:15 PM,39.2,31.6,74,30.41,10.0,SE,5.8,-,N/A,,Clear,130,2012-11-18 01:15:00
7:35 PM,38.7,31.5,75,30.41,10.0,ESE,4.6,-,N/A,,Clear,120,2012-11-18 01:35:00
7:55 PM,39.9,32.0,73,30.41,10.0,SE,4.6,-,N/A,,Clear,130,2012-11-18 01:55:00
8:15 PM,40.1,32.0,73,30.41,10.0,SE,6.9,-,N/A,,Clear,140,2012-11-18 02:15:00
8:35 PM,38.8,31.8,76,30.41,10.0,SE,8.1,-,N/A,,Clear,140,2012-11-18 02:35:00
8:55 PM,37.9,31.5,77,30.42,10.0,SE,6.9,-,N/A,,Clear,140,2012-11-18 02:55:00
9:15 PM,37.8,31.6,79,30.42,10.0,SSE,6.9,-,N/A,,Clear,150,2012-11-18 03:15:00
9:35 PM,36.9,31.6,81,30.41,7.0,SSE,6.9,-,N/A,,Clear,150,2012-11-18 03:35:00
9:55 PM,36.5,31.6,83,30.41,7.0,South,5.8,-,N/A,,Clear,170,2012-11-18 03:55:00
10:15 PM,39.6,32.0,74,30.41,10.0,South,3.5,-,N/A,,Clear,180,2012-11-18 04:15:00
10:35 PM,38.5,32.0,78,30.41,10.0,SE,4.6,-,N/A,,Clear,140,2012-11-18 04:35:00
10:55 PM,37.2,31.5,80,30.41,10.0,Calm,Calm,-,N/A,,Clear,0,2012-11-18 04:55:00
11:15 PM,37.6,31.6,79,30.41,7.0,Calm,Calm,-,N/A,,Clear,0,2012-11-18 05:15:00
11:35 PM,37.2,31.8,81,30.41,7.0,SSE,3.5,-,N/A,,Clear,150,2012-11-18 05:35:00
11:55 PM,36.9,32.0,83,30.41,7.0,SSE,3.5,-,N/A,,Clear,160,2012-11-18 05:55:00